Find OAO 1

NORAD ID: 2142 Int'l Des: 1966-031 Owner: GSFC Country: US operational
LEOCIRCULAR

实时位置

正在加载3D地球...

关于 OAO 1

正在加载描述...

即将过境

Passes for default location (London). Set your location on the main map for personalized predictions.

高度历史

Loading altitude history...

两行轨道根数

1 2142U 66031A 26137.69795549 .00000025 00000-0 15388-4 0 9994
2 2142 35.0442 136.9238 0006430 54.7342 305.3946 14.34689287146709
Epoch: May 17, 2026 • Age: 10 hours

当前状态

高度 770.5 km
速度 7.48 km/s
星下点 23.04°N, 108.68°W
类型 other

Most Searched